x

9442396 - La Push, Wa (lapw1) Weather Station

11:36 - Fri 28th Apr 2017 All times are PDT. -7 hours from GMT.

  • Wind
    10mph, 14mph gusts
  • Sea Temp 47°f
  • Luft Temp 50°f
  • Sea Pressure 1028.9mb
  • 9442396 - La Push, Wa
  • 9442396 - La Push, Wa

More Historic Weather Station data

Upgrade to MSW Pro to gain access to the past 30 days of data for over 8000 Wavebouys and Weather Stations around the globe.

Join Pro

Comparision Forecast

View Surf forecast
   
Fr 04/28 11:36 10 14 mph 1028.9mb 47f 50f
11:30 11 14 mph 1028.9mb 47f 50f
11:24 11 16 mph 1028.9mb 47f 50f
11:18 10 14 mph 1028.8mb 47f 50f
11:12 10 13 mph 1028.8mb 47f 50f
11:06 13 15 mph 1028.8mb 47f 50f
11:00 11 15 mph 1028.8mb 47f 50f
10:36 13 16 mph 1028.8mb 47f 50f
10:30 10 14 mph 1028.6mb 47f 50f
10:24 10 13 mph 1028.5mb 47f 49f
10:18 11 14 mph 1028.5mb 47f 50f
10:12 10 13 mph 1028.5mb 47f 50f
10:06 9 13 mph 1028.5mb 47f 50f
10:00 8 11 mph 1028.4mb 47f 50f
9:36 7 10 mph 1028.1mb 47f 50f
9:30 9 10 mph 1028mb 47f 50f
9:24 9 10 mph 1028mb 47f 50f
9:18 9 11 mph 1027.9mb 47f 50f
9:12 9 11 mph 1027.9mb 47f 49f
9:06 8 11 mph 1027.8mb 47f 49f
9:00 9 10 mph 1027.7mb 47f 49f
8:36  -  2 mph 1027.4mb 47f 47f
8:30 2 3 mph 1027.3mb 47f 47f
8:24 2 5 mph 1027.2mb 47f 46f
8:18 5 6 mph 1027.2mb 47f 46f
8:12 5 7 mph 1027.1mb 47f 45f
8:06 6 7 mph 1027.1mb 47f 45f
8:00 6
mph
1027mb 48f 45f
7:36 6 7 mph 1026.8mb 48f 44f
7:30 5 7 mph 1026.7mb 48f 44f
7:24 6 7 mph 1026.6mb 48f 44f
7:18 5 7 mph 1026.6mb 48f 44f
7:12 6 7 mph 1026.6mb 48f 44f
7:06 5 6 mph 1026.5mb 48f 44f
7:00 5 7 mph 1026.5mb 48f 44f
6:36 1 6 mph 1026.3mb 48f 44f
6:30 2 3 mph 1026.3mb 48f 44f
6:24 2 6 mph 1026.2mb 48f 45f
6:18 3 7 mph 1026.1mb 48f 45f
6:12 6 14 mph 1026mb 48f 49f
6:06 9 13 mph 1025.9mb 48f 49f
6:00 8 14 mph 1025.8mb 48f 49f
5:36 11 15 mph 1025.8mb 49f 49f
5:30 9 13 mph 1025.7mb 49f 49f
5:24 11 13 mph 1025.7mb 49f 49f
5:18 11 14 mph 1025.7mb 49f 49f
5:12 13 15 mph 1025.7mb 49f 49f
5:06 13 14 mph 1025.6mb 49f 49f
5:00 13 15 mph 1025.5mb 49f 49f
4:30 13 15 mph 1025.4mb 50f 49f
4:24 11 15 mph 1025.3mb 50f 49f
4:18 13 14 mph 1025.3mb 50f 49f
4:12 10 14 mph 1025.2mb 50f 49f
4:06 11 14 mph 1025.3mb 51f 49f
4:00 11 14 mph 1025.2mb 51f 49f
3:36 11 16 mph 1025.2mb 51f 49f
3:30 14 16 mph 1025.2mb 51f 49f
3:24 14 16 mph 1025.1mb 51f 49f
3:18 11 16 mph 1025.1mb 51f 49f
3:12 13 17 mph 1025.1mb 51f 49f
3:06 14 18 mph 1025.2mb 51f 49f
3:00 17 22 mph 1025.1mb 51f 49f
2:36 15 20 mph 1024.9mb 51f 49f
2:30 17 20 mph 1025mb 51f 49f
2:24 14 21 mph 1024.8mb 51f 49f
2:18 18 21 mph 1024.8mb 51f 49f
2:12 16 20 mph 1024.8mb 51f 49f
2:06 14 18 mph 1024.8mb 51f 49f
2:00 14 16 mph 1024.7mb 51f 49f
1:36 15 18 mph 1024.6mb 51f 49f
1:30 14 17 mph 1024.6mb 51f 49f
1:24 13 16 mph 1024.5mb 51f 49f
1:18 13 15 mph 1024.3mb 51f 49f
1:12 11 14 mph 1024.3mb 51f 49f
1:06 11 16 mph 1024.3mb 51f 49f
1:00 14 15 mph 1024.3mb 51f 49f
12:36 14 17 mph 1024mb 51f 49f
12:30 13 18 mph 1023.9mb 51f 49f
12:24 13 17 mph 1023.9mb 51f 49f
12:18 15 16 mph 1023.9mb 51f 49f
12:12 14 16 mph 1023.8mb 50f 49f
12:06 14 17 mph 1023.8mb 50f 49f
12:00 16 17 mph 1023.9mb 50f 49f
Do 04/27 11:36 15 18 mph 1024mb 50f 49f
11:30 14 18 mph 1023.9mb 50f 49f
11:24 14 18 mph 1023.8mb 50f 49f
11:18 16 20 mph 1023.9mb 50f 49f
11:12 14 18 mph 1023.8mb 49f 49f
11:06 16 20 mph 1023.8mb 49f 49f
11:00 17 21 mph 1023.8mb 49f 49f
10:36 16 22 mph 1023.6mb 49f 49f
10:30 15 20 mph 1023.5mb 48f 49f
10:24 18 22 mph 1023.6mb 49f 49f
10:18 15 20 mph 1023.6mb 48f 49f
10:12 16 20 mph 1023.6mb 49f 49f
10:06 17 22 mph 1023.6mb 49f 49f
10:00 20 23 mph 1023.6mb 49f 49f
9:36 20 25 mph 1023.7mb 49f 49f
9:30 17 21 mph 1023.5mb 48f 49f
9:24 15 18 mph 1023.3mb 48f 49f
9:18 15 20 mph 1023.4mb 48f 49f
9:12 15 18 mph 1023.2mb 48f 49f
9:06 14 18 mph 1023.1mb 48f 49f
9:00 14 18 mph 1023mb 48f 49f
8:36 18 21 mph 1022.6mb 49f 49f
8:30 16 20 mph 1022.6mb 48f 49f
8:24 14 20 mph 1022.5mb 48f 49f
8:18 16 22 mph 1022.6mb 48f 48f
8:12 17 22 mph 1022.6mb 48f 48f
8:06 16 22 mph 1022.5mb 48f 48f
8:00 17 22 mph 1022.5mb 48f 49f
7:36 17 22 mph 1022.4mb 48f 49f
7:30 14 17 mph 1022.3mb 49f 48f
7:24 17 22 mph 1022.3mb 49f 49f
7:18 16 18 mph 1022.2mb 48f 49f
7:12 16 18 mph 1022.2mb 48f 49f
7:06 16 18 mph 1022.1mb 48f 49f
7:00 16 18 mph 1022mb 48f 49f
6:36 17 20 mph 1021.9mb 48f 49f
6:30 16 21 mph 1021.8mb 48f 49f
6:24 17 21 mph 1021.9mb 48f 49f
6:18 16 18 mph 1021.9mb 47f 49f
6:12 17 22 mph 1021.9mb 47f 49f
6:06 17 20 mph 1021.7mb 47f 49f
6:00 15 22 mph 1021.6mb 47f 49f
5:36 16 22 mph 1021.7mb 47f 49f
5:30 16 20 mph 1021.8mb 47f 49f
5:24 16 20 mph 1021.8mb 47f 49f
5:18 14 20 mph 1021.7mb 47f 48f
5:12 16 21 mph 1021.7mb 47f 49f
5:06 16 21 mph 1021.7mb 47f 49f
5:00 14 18 mph 1021.6mb 47f 49f
4:36 14 17 mph 1021.5mb 48f 49f
4:30 14 18 mph 1021.4mb 48f 49f
4:24 16 18 mph 1021.5mb 48f 49f
4:18 15 17 mph 1021.4mb 48f 49f
4:12 15 18 mph 1021.5mb 49f 49f
4:06 16 18 mph 1021.5mb 49f 49f
4:00 15 18 mph 1021.5mb 49f 49f
3:36 15 18 mph 1021.5mb 49f 49f
3:30 15 18 mph 1021.4mb 49f 49f
3:24 14 17 mph 1021.3mb 49f 48f
3:18 15 20 mph 1021.2mb 49f 48f
3:12 16 18 mph 1021.3mb 49f 48f
3:06 17 20 mph 1021.3mb 49f 48f
3:00 17 21 mph 1021.3mb 49f 49f
2:36 16 21 mph 1021.1mb 49f 48f
2:30 17 21 mph 1021.1mb 50f 48f
2:24 16 21 mph 1021.1mb 50f 49f
2:18 13 16 mph 1020.9mb 50f 48f
2:12 13 18 mph 1020.9mb 50f 48f
2:06 14 17 mph 1020.9mb 50f 48f
2:00 13 16 mph 1020.9mb 50f 48f
1:36 15 20 mph 1020.8mb 50f 48f
1:30 17 21 mph 1020.8mb 50f 48f
1:24 15 17 mph 1020.7mb 50f 48f
1:18 14 17 mph 1020.6mb 50f 48f
1:12 15 17 mph 1020.5mb 50f 48f
1:06 14 17 mph 1020.4mb 49f 48f
1:00 13 16 mph 1020.4mb 49f 48f
12:36 9 10 mph 1020.2mb 49f 48f
12:30 9 11 mph 1020.1mb 49f 47f
12:24 11 15 mph 1020.1mb 49f 48f
12:18 14 16 mph 1020.1mb 49f 47f
12:12 15 20 mph 1020.2mb 48f 47f
12:06 15 22 mph 1020.3mb 48f 47f
12:00 20 22 mph 1020.4mb 47f 48f
11:36 10 13 mph 1020mb 47f 48f
11:30 10 14 mph 1020mb 47f 48f
11:24 9 14 mph 1019.9mb 47f 48f
11:18 10 14 mph 1019.8mb 47f 48f
11:12 13 15 mph 1019.8mb 47f 48f
11:06 10 13 mph 1019.6mb 47f 48f
11:00 11 15 mph 1019.6mb 47f 48f
10:36 11 13 mph 1019.5mb 46f 48f
10:30 10 14 mph 1019.5mb 46f 48f
10:24 10 14 mph 1019.5mb 46f 48f
10:18 11 14 mph 1019.5mb 46f 48f
10:12 9 11 mph 1019.4mb 46f 48f
10:06 8 11 mph 1019.4mb 46f 48f
10:00 10 13 mph 1019.4mb 46f 48f
9:36 9 13 mph 1019.3mb 46f 48f
9:30 11 13 mph 1019.3mb 46f 48f
9:24 11 13 mph 1019.3mb 46f 48f
9:18 10 14 mph 1019.2mb 46f 48f
9:12 9 13 mph 1019.2mb 46f 47f
9:06 11 15 mph 1019.1mb 46f 47f
9:00 10 13 mph 1019mb 46f 47f
8:36 5 6 mph 1018.9mb 47f 46f
8:30  -  3 mph 1018.7mb 47f 46f
8:24 2 6 mph 1018.7mb 47f 47f
8:18 6 10 mph 1018.8mb 47f 47f
8:12 9 11 mph 1018.8mb 47f 46f
8:06 5 11 mph 1018.7mb 47f 45f
8:00 8 11 mph 1018.7mb 47f 44f
7:36  -  7 mph 1018.6mb 47f 43f
7:30 5 7 mph 1018.6mb 47f 44f
7:24 5 10 mph 1018.5mb 46f 46f
7:18 9 14 mph 1018.5mb 46f 46f
7:12 8 14 mph 1018.5mb 46f 46f
7:06 13 16 mph 1018.3mb 47f 47f
7:00 14 18 mph 1018.3mb 47f 47f
6:36 8 10 mph 1018mb 47f 44f
6:30  -  5 mph 1018mb 47f 44f
6:24 2 3 mph 1017.9mb 47f 46f
6:18 3 11 mph 1018mb 47f 47f
6:12 8 14 mph 1018mb 47f 47f
6:06 10 14 mph 1018.1mb 47f 46f
6:00 8 17 mph 1018.1mb 47f 46f
5:36 11 14 mph 1018mb 47f 47f
5:30 11 15 mph 1018.1mb 47f 46f
5:24 13 18 mph 1018.1mb 47f 47f
5:18 15 18 mph 1018.1mb 47f 47f
5:12 14 17 mph 1018mb 47f 47f
5:06 15 20 mph 1018.1mb 47f 47f
5:00 16 20 mph 1018mb 47f 47f
4:36 16 21 mph 1017.9mb 48f 48f
4:30 10 14 mph 1017.7mb 48f 48f
4:24 10 16 mph 1017.7mb 48f 48f
4:18 11 16 mph 1017.7mb 48f 48f
4:12 13 15 mph 1017.6mb 48f 48f
4:06 8 11 mph 1017.5mb 48f 47f
4:00 9 10 mph 1017.5mb 48f 47f
3:36 15 18 mph 1017.6mb 49f 47f
3:30 16 22 mph 1017.6mb 49f 47f
3:24 14 20 mph 1017.6mb 50f 47f
3:18 11 15 mph 1017.5mb 50f 47f
3:12 13 15 mph 1017.5mb 50f 47f
3:06 15 18 mph 1017.6mb 50f 47f
3:00 16 18 mph 1017.6mb 50f 48f
2:36 13 16 mph 1017.5mb 51f 48f
2:30 14 16 mph 1017.5mb 51f 48f
2:24 13 17 mph 1017.5mb 51f 47f
2:18 6 7 mph 1017.4mb 51f 47f
2:12 3 5 mph 1017.4mb 51f 47f
2:06 2 6 mph 1017.4mb 51f 46f
2:00 3 5 mph 1017.4mb 51f 46f
1:36 15 18 mph 1017.7mb 51f 48f
1:30 15 20 mph 1017.5mb 51f 48f
1:24 15 20 mph 1017.5mb 51f 48f
1:18 14 17 mph 1017.3mb 51f 48f
1:12 15 18 mph 1017.3mb 51f 48f
1:06 13 16 mph 1017.2mb 51f 48f
1:00 13 15 mph 1017.2mb 51f 48f
12:36 13 15 mph 1017mb 51f 48f
12:30 11 14 mph 1016.9mb 51f 48f
12:24 11 14 mph 1016.9mb 51f 48f
12:18 10 13 mph 1016.8mb 51f 48f
12:12 10 13 mph 1016.7mb 51f 48f
12:06 7 9 mph 1016.7mb 51f 48f
12:00 8 13 mph 1016.7mb 51f 47f
Mi 04/26 11:36 15 18 mph 1016.7mb 51f 48f
11:30 16 18 mph 1016.7mb 51f 48f
11:24 15 18 mph 1016.5mb 50f 49f
11:18 13 15 mph 1016.4mb 50f 48f
11:12 13 17 mph 1016.4mb 50f 49f
11:06 13 16 mph 1016.4mb 50f 48f
11:00 11 17 mph 1016.4mb 50f 49f
10:36 15 18 mph 1016.4mb 49f 48f
10:30 14 21 mph 1016.4mb 49f 48f
10:24 20 25 mph 1016.6mb 49f 49f
10:18 16 18 mph 1016.4mb 48f 49f
10:12 15 20 mph 1016.5mb 48f 49f
10:06 16 22 mph 1016.4mb 48f 49f
10:00 14 21 mph 1016.3mb 48f 49f
9:36 10 16 mph 1016mb 48f 47f
9:30 14 18 mph 1016.1mb 48f 48f
9:24 16 21 mph 1016.1mb 49f 47f
9:18 18 22 mph 1016mb 49f 46f
9:12 11 24 mph 1015.9mb 49f 46f
9:06 23 28 mph 1016.2mb 49f 48f
9:00 10 14 mph 1015.7mb 49f 48f
8:36 15 21 mph 1015.5mb 49f 47f
8:30 13 21 mph 1015.3mb 49f 48f
8:24 13 16 mph 1015.3mb 48f 48f
8:18 14 20 mph 1015.2mb 48f 48f
8:12 17 22 mph 1015.2mb 48f 48f
8:06 16 24 mph 1015.2mb 48f 48f
8:00 16 22 mph 1015.1mb 48f 49f
7:36 15 20 mph 1014.9mb 48f 49f
7:30 13 17 mph 1014.7mb 48f 47f
7:24 13 15 mph 1014.7mb 48f 47f
7:18 13 16 mph 1014.8mb 48f 47f
7:12 14 21 mph 1014.8mb 48f 47f
7:06 16 21 mph 1014.9mb 48f 47f
7:00 18 22 mph 1014.9mb 48f 49f
6:36 14 17 mph 1014.8mb 48f 48f
6:30 14 18 mph 1014.7mb 48f 49f
6:24 14 18 mph 1014.7mb 48f 49f
6:18 13 16 mph 1014.7mb 49f 48f
6:12 11 15 mph 1014.7mb 48f 47f
6:06 8 11 mph 1014.7mb 48f 47f
6:00 8 14 mph 1014.7mb 48f 46f
5:36 14 18 mph 1014.5mb 47f 49f
5:30 14 17 mph 1014.5mb 47f 49f
5:24 13 18 mph 1014.5mb 47f 49f
5:18 15 20 mph 1014.4mb 47f 49f
5:12 15 20 mph 1014.4mb 47f 49f
5:06 14 18 mph 1014.4mb 47f 49f
5:00 16 20 mph 1014.3mb 47f 49f
4:36 15 20 mph 1014.1mb 47f 49f
4:30 14 20 mph 1014mb 47f 49f
4:24 13 20 mph 1014mb 47f 49f
4:18 16 20 mph 1013.9mb 47f 49f
4:12 14 17 mph 1013.8mb 47f 49f
4:06 15 18 mph 1013.7mb 47f 49f
4:00 14 18 mph 1013.6mb 47f 49f
3:36 14 18 mph 1013.6mb 48f 49f
3:30 15 18 mph 1013.6mb 49f 49f
3:24 14 20 mph 1013.6mb 49f 49f
3:18 16 20 mph 1013.6mb 49f 49f
3:12 15 17 mph 1013.6mb 49f 49f
3:06 14 16 mph 1013.6mb 50f 48f
3:00 14 18 mph 1013.7mb 50f 49f
2:36 14 18 mph 1013.6mb 50f 49f
2:30 16 20 mph 1013.6mb 50f 49f
2:24 13 20 mph 1013.5mb 50f 49f
2:18 11 16 mph 1013.4mb 50f 49f
2:12 15 20 mph 1013.4mb 50f 49f
2:06 16 18 mph 1013.4mb 50f 49f
2:00 15 17 mph 1013.3mb 50f 49f
1:36 13 22 mph 1013.3mb 51f 49f
1:30 17 22 mph 1013.4mb 50f 49f
1:24 16 20 mph 1013.3mb 50f 49f
1:18 17 21 mph 1013.1mb 50f 49f
1:12 17 22 mph 1013.1mb 50f 49f
1:06 15 18 mph 1013mb 50f 49f
1:00 15 20 mph 1013mb 50f 49f
12:36 14 17 mph 1012.6mb 50f 49f
12:30 14 17 mph 1012.5mb 50f 49f
12:24 14 17 mph 1012.4mb 50f 49f
12:18 14 16 mph 1012.2mb 50f 49f
12:12 14 16 mph 1012.1mb 50f 49f
12:06 11 15 mph 1011.9mb 50f 49f
12:00 11 14 mph 1011.9mb 50f 49f
11:36 11 15 mph 1011.5mb 50f 49f
11:30 11 14 mph 1011.6mb 50f 49f
11:24 13 15 mph 1011.6mb 49f 49f
11:18 14 17 mph 1011.6mb 49f 49f
11:12 13 17 mph 1011.7mb 49f 49f
11:06 15 17 mph 1011.7mb 49f 49f
11:00 14 18 mph 1011.7mb 48f 49f
10:36 14 17 mph 1011.5mb 46f 49f
10:30 16 21 mph 1011.5mb 46f 48f
10:24 18 22 mph 1011.5mb 46f 49f
10:18 16 22 mph 1011.3mb 46f 49f
10:12 14 17 mph 1011.2mb 46f 49f
10:06 13 20 mph 1011.1mb 46f 48f
10:00 17 21 mph 1011.1mb 46f 49f
9:36 15 18 mph 1010.8mb 46f 49f
9:30 15 18 mph 1010.7mb 46f 49f
9:24 14 17 mph 1010.7mb 46f 49f
9:18 15 22 mph 1010.6mb 46f 48f
9:12 16 20 mph 1010.5mb 46f 47f
9:06 10 14 mph 1010.4mb 46f 46f
9:00 7 10 mph 1010.4mb 46f 46f
8:36 15 22 mph 1010.4mb 46f 48f
8:30 13 16 mph 1010.1mb 46f 48f
8:24 10 15 mph 1010mb 46f 48f
8:18 13 16 mph 1010mb 46f 48f
8:12 9 13 mph 1010mb 46f 47f
8:06 7 11 mph 1009.9mb 46f 47f
8:00 3 8 mph 1009.6mb 46f 47f
7:36 13 16 mph 1009.6mb 47f 46f
7:30 10 17 mph 1009.6mb 47f 46f
7:24 13 18 mph 1009.6mb 47f 47f
7:18 14 18 mph 1009.5mb 46f 46f
7:12 15 21 mph 1009.5mb 46f 48f
7:06 11 16 mph 1009.4mb 46f 48f
7:00 10 14 mph 1009.3mb 46f 48f
6:36 9 13 mph 1009.2mb 46f 47f
6:30 9 14 mph 1009.2mb 46f 47f
6:24 9 11 mph 1009.1mb 46f 47f
6:18 8 13 mph 1009mb 46f 47f
6:12 9 13 mph 1009mb 47f 47f
6:06 7 11 mph 1009mb 46f 47f
6:00 10 15 mph 1008.9mb 47f 47f
5:36 10 15 mph 1008.9mb 47f 47f
5:30 13 15 mph 1008.9mb 47f 47f
5:24 10 14 mph 1008.9mb 47f 47f
5:18 8 13 mph 1008.8mb 47f 47f
5:12 11 14 mph 1008.8mb 47f 47f
5:06 10 16 mph 1008.8mb 47f 47f
5:00 13 14 mph 1008.8mb 47f 47f
4:36 10 15 mph 1009mb 47f 47f
4:30 9 13 mph 1009mb 47f 47f
4:24 13 16 mph 1009.1mb 47f 46f
4:18 13 18 mph 1009.1mb 47f 46f
4:12 14 18 mph 1009.1mb 47f 47f
4:06 13 23 mph 1009.1mb 48f 47f
4:00 17 21 mph 1009.2mb 48f 48f
3:36 13 17 mph 1009.1mb 49f 48f
3:30 14 17 mph 1009.1mb 49f 48f
3:24 15 21 mph 1009.1mb 49f 47f
3:18 14 18 mph 1009mb 50f 47f
3:12 16 21 mph 1008.9mb 50f 47f
3:06 15 21 mph 1008.9mb 50f 47f
3:00 13 21 mph 1008.8mb 51f 48f
2:36 16 21 mph 1008.8mb 51f 48f
2:30 13 22 mph 1008.9mb 51f 49f
2:24 15 20 mph 1009.1mb 51f 49f
2:18 15 20 mph 1009mb 51f 49f
2:12 15 17 mph 1009mb 51f 49f
2:06 11 16 mph 1008.9mb 51f 49f
2:00 11 14 mph 1009mb 51f 48f
1:36 11 18 mph 1008.8mb 51f 49f
1:30 16 18 mph 1008.8mb 51f 49f
1:24 14 18 mph 1008.6mb 51f 49f
1:18 14 17 mph 1008.6mb 51f 49f
1:12 15 18 mph 1008.6mb 51f 49f
1:06 16 21 mph 1008.6mb 51f 49f
1:00 15 21 mph 1008.3mb 51f 49f
12:36 14 20 mph 1008.3mb 51f 48f
12:30 11 18 mph 1008.1mb 51f 49f
12:24 13 17 mph 1008.1mb 51f 49f
12:18 11 18 mph 1008mb 51f 49f
12:12 17 22 mph 1008.1mb 51f 49f
12:06 17 22 mph 1008.2mb 51f 49f
12:00 17 24 mph 1008.1mb 51f 49f
Di 04/25 11:36 15 20 mph 1007.7mb 51f 49f
11:30 17 22 mph 1007.7mb 51f 49f
11:24 14 18 mph 1007.6mb 51f 49f
11:18 15 20 mph 1007.6mb 51f 49f
11:12 13 20 mph 1007.6mb 51f 49f
11:06 15 20 mph 1007.5mb 51f 49f
11:00 11 17 mph 1007.5mb 51f 49f
10:36 14 18 mph 1007.1mb 51f 50f
10:30 15 20 mph 1007mb 51f 49f
10:24 14 20 mph 1006.8mb 51f 50f
10:18 15 18 mph 1006.8mb 51f 50f
10:12 9 17 mph 1006.7mb 51f 50f
10:06 14 20 mph 1006.6mb 51f 50f
10:00 15 21 mph 1006.5mb 51f 50f
9:36 13 21 mph 1005.9mb 49f 50f
9:30 13 23 mph 1005.9mb 49f 50f
9:24 11 22 mph 1005.9mb 49f 50f
9:18 11 26 mph 1005.9mb 48f 50f
9:12 13 25 mph 1005.8mb 48f 50f
9:06 8 21 mph 1005.8mb 48f 51f
9:00 9 20 mph 1005.9mb 48f 51f
8:36 8 18 mph 1006mb 48f 51f
8:30 6 8 mph 1006mb 48f 51f
8:24 6 13 mph 1005.9mb 47f 51f
8:18 7 13 mph 1005.9mb 47f 51f
8:12 6 11 mph 1005.9mb 47f 51f
8:06 5 13 mph 1005.9mb 47f 51f
8:00 7 11 mph 1005.9mb 47f 51f
7:36 6 9 mph 1006mb 47f 51f
7:30 9 16 mph 1006mb 47f 50f
7:24 7 11 mph 1006mb 47f 50f
7:18 6 16 mph 1006.1mb 47f 50f
7:12 6 21 mph 1006.1mb 47f 50f
7:06 5 13 mph 1006.2mb 47f 49f
7:00 6 11 mph 1006.3mb 47f 49f
6:36 3 10 mph 1006.5mb 47f 49f
6:30 6 15 mph 1006.7mb 47f 49f
6:24 6 14 mph 1006.8mb 47f 49f
6:18 3 9 mph 1006.8mb 47f 49f
6:12 5 8 mph 1006.8mb 47f 49f
6:06 3 8 mph 1006.9mb 47f 49f
6:00 3 10 mph 1006.9mb 47f 49f
5:36 6 8 mph 1007.4mb 47f 49f
5:30 6 15 mph 1007.5mb 47f 50f
5:24 8 16 mph 1007.6mb 47f 50f
5:18 11 20 mph 1007.7mb 47f 50f
5:12 7 17 mph 1007.8mb 47f 50f
5:06 3 9 mph 1007.9mb 47f 50f
5:00 3 14 mph 1007.9mb 47f 50f
4:36 5 10 mph 1008mb 47f 50f
4:30 6 8 mph 1008.1mb 47f 50f
4:24 5 9 mph 1008.2mb 47f 50f
4:18 5 9 mph 1008.3mb 47f 50f
4:12 7 11 mph 1008.4mb 47f 50f
4:06 7 11 mph 1008.6mb 47f 50f
4:00 7 14 mph 1008.7mb 47f 50f
3:36 7 14 mph 1009.2mb 47f 51f
3:30 7 16 mph 1009.3mb 48f 52f
3:24 11 18 mph 1009.4mb 48f 52f
3:18 6 18 mph 1009.5mb 48f 52f
3:12 8 16 mph 1009.6mb 48f 52f
3:06 10 17 mph 1009.6mb 48f 52f
3:00 10 16 mph 1009.9mb 49f 52f
2:36 8 15 mph 1010.3mb 49f 52f
2:30 8 13 mph 1010.5mb 50f 52f
2:24 8 11 mph 1010.6mb 50f 52f
2:18 8 14 mph 1010.7mb 50f 51f
2:12 8 13 mph 1010.7mb 50f 51f
2:06 9 14 mph 1010.8mb 50f 51f
2:00 7 13 mph 1011mb 50f 50f
1:36 6 14 mph 1011.2mb 51f 49f
1:30 6 10 mph 1011.4mb 51f 49f
1:24 11 17 mph 1011.5mb 51f 49f
1:18 5 8 mph 1011.5mb 51f 49f
1:12 3 9 mph 1011.5mb 51f 49f
1:06 5 10 mph 1011.5mb 51f 49f
1:00 6 10 mph 1011.5mb 51f 50f
12:36 9 16 mph 1011.6mb 50f 50f
12:30 7 13 mph 1011.8mb 50f 50f
12:24 10 14 mph 1012mb 50f 50f
12:18 8 13 mph 1011.9mb 50f 50f
12:12 8 15 mph 1012.1mb 50f 50f
12:06 7 13 mph 1012.2mb 50f 50f
12:00 10 17 mph 1012.3mb 50f 50f
11:36 10 18 mph 1012.6mb 50f 49f
11:30 8 13 mph 1012.7mb 50f 49f
11:24 6 17 mph 1012.7mb 50f 48f
11:18 8 13 mph 1012.6mb 50f 48f
11:12 9 21 mph 1012.6mb 50f 48f
11:06 9 16 mph 1012.6mb 50f 48f
11:00 11 20 mph 1012.6mb 50f 48f
10:36 11 18 mph 1012.6mb 49f 48f
10:30 8 15 mph 1012.6mb 49f 48f
10:24 8 16 mph 1012.7mb 49f 48f
10:18 8 17 mph 1012.7mb 49f 48f
10:12 9 17 mph 1012.6mb 48f 48f
10:06 6 13 mph 1012.7mb 48f 48f
10:00 11 17 mph 1012.7mb 48f 48f
9:36 10 16 mph 1012.7mb 47f 48f
9:30 11 21 mph 1012.7mb 47f 48f
9:24 7 17 mph 1012.6mb 47f 49f
9:18 7 17 mph 1012.4mb 47f 48f
9:12 8 14 mph 1012.4mb 47f 48f
9:06 7 13 mph 1012.4mb 47f 48f
9:00 7 11 mph 1012.3mb 47f 48f
8:36 5 10 mph 1012mb 47f 47f
8:30 6 14 mph 1011.9mb 47f 47f
8:24 8 13 mph 1012.1mb 47f 47f
8:18 6 10 mph 1012.3mb 47f 47f
8:12 6 10 mph 1012.4mb 47f 47f
8:06 5 6 mph 1012.3mb 47f 47f
8:00 6 9 mph 1012.4mb 47f 47f
7:36 6 14 mph 1013.1mb 48f 47f
7:30 6 13 mph 1013.3mb 47f 47f
7:24 7 13 mph 1013.4mb 48f 47f
7:18 8 15 mph 1013.5mb 48f 47f
7:12 6 13 mph 1013.6mb 47f 47f
7:06 6 14 mph 1013.7mb 48f 47f
7:00 6 8 mph 1013.8mb 47f 48f
6:36 8 13 mph 1013.8mb 47f 47f
6:30 5 8 mph 1013.9mb 47f 47f
6:24 5 10 mph 1014mb 47f 47f
6:18 3 6 mph 1013.9mb 47f 47f
6:12 3 9 mph 1013.8mb 47f 47f
6:06 5 7 mph 1013.7mb 47f 47f
6:00 3 7 mph 1013.7mb 47f 47f
5:36 5 7 mph 1013.4mb 47f 46f
5:30 5 7 mph 1013.3mb 47f 46f
5:24 5 7 mph 1013.3mb 47f 45f
5:18 5 7 mph 1013.4mb 47f 45f
5:12 6 8 mph 1013.3mb 47f 45f
5:06 5 6 mph 1013.3mb 47f 45f
5:00 6 7 mph 1013.3mb 47f 45f
4:36 1 9 mph 1013.4mb 47f 48f
4:30 7 9 mph 1013.5mb 47f 48f
4:24 5 7 mph 1013.5mb 47f 48f
4:18 6 13 mph 1013.5mb 47f 48f
4:12 6 10 mph 1013.4mb 47f 47f
4:06 5 13 mph 1013.3mb 47f 47f
4:00 3 9 mph 1013.3mb 47f 46f
3:54 5 10 mph 1013.3mb 47f 47f
3:36 6 8 mph 1013.3mb 48f 44f
3:30 6 9 mph 1013.3mb 48f 44f
3:24 8 11 mph 1013.3mb 48f 45f
3:18 7 8 mph 1013.3mb 48f 45f
3:12 5 8 mph 1013.3mb 48f 44f
3:06 6 10 mph 1013.4mb 48f 44f
3:00 7 9 mph 1013.5mb 48f 44f
2:36 7 13 mph 1013.9mb 49f 49f
2:30 10 13 mph 1014mb 49f 47f
2:24 3 9 mph 1014.2mb 50f 45f
2:18 2 5 mph 1014.2mb 50f 46f
2:12 2 6 mph 1014.2mb 50f 46f
2:06 2 3 mph 1014.2mb 51f 46f
2:00 2 5 mph 1014.1mb 51f 46f
1:36 2 3 mph 1014.1mb 51f 45f
1:30 2 5 mph 1014mb 51f 45f
1:24 1 2 mph 1013.9mb 51f 44f
1:18  -  1 mph 1013.8mb 51f 44f
1:12  -  2 mph 1013.6mb 51f 44f
1:06 1 5 mph 1013.5mb 51f 44f
1:00 2 5 mph 1013.3mb 51f 44f
12:36 1 2 mph 1013.2mb 51f 44f
12:30 2
mph
1013.2mb 51f 44f
12:24 1 2 mph 1013.1mb 51f 44f
12:18 2 3 mph 1013.1mb 51f 45f
12:12 3
mph
1013mb 51f 45f
12:06 3 5 mph 1013mb 51f 45f
12:00 3 5 mph 1012.9mb 51f 45f
Mo 04/24 11:36 3 5 mph 1012.7mb 51f 45f
11:30 3 5 mph 1012.8mb 51f 46f
11:24 3 5 mph 1012.9mb 51f 45f
11:18 3
mph
1012.8mb 51f 45f
11:12 3 6 mph 1012.8mb 51f 46f
11:06 5 6 mph 1012.7mb 51f 46f
11:00 3 5 mph 1012.7mb 51f 46f
10:36 5 6 mph 1012.8mb 51f 48f
10:30 2 3 mph 1012.8mb 51f 49f
10:24 2 6 mph 1012.9mb 50f 49f
10:18 6 10 mph 1012.8mb 50f 50f
10:12 9 10 mph 1012.9mb 50f 50f
10:06 9 11 mph 1013mb 50f 50f
10:00 10 13 mph 1013.1mb 50f 50f
9:36 11 14 mph 1012.7mb 48f 50f
9:30 13 15 mph 1012.8mb 47f 50f
9:24 13 14 mph 1012.8mb 47f 50f
9:18 13 15 mph 1012.8mb 47f 50f
9:12 13 16 mph 1012.8mb 47f 50f
9:06 14 17 mph 1012.8mb 47f 50f
9:00 14 18 mph 1012.6mb 47f 50f
8:36 14 15 mph 1012mb 47f 50f
8:30 14 16 mph 1011.8mb 47f 50f
8:24 14 16 mph 1011.7mb 47f 50f
8:18 9 15 mph 1011.5mb 47f 50f
8:12 11 15 mph 1011.4mb 47f 50f
8:06 13 16 mph 1011.4mb 47f 50f